Location: Bacharowice
(49.9333°N, 19.5833°E)
Time: 06:22:17
(UTC+00:00)

Envisat - Visible Passes

Search period start: 04 October 2022 00:00
Search period end: 14 October 2022 00:00
Orbit: 764 x 765 km, 98.2° (Epoch: 03 October)

Date Brightness Start Highest point End Pass type
(mag) Time Alt. Az. Time Alt. Az. Time Alt. Az.
04 Oct 5.8 01:43:35 10° NE 01:46:31 15° E 01:49:25 10° ESE visible
04 Oct 2.9 03:21:05 10° NNE 03:26:12 85° WNW 03:31:17 10° SSW visible
05 Oct 3.9 02:44:14 10° NNE 02:49:10 48° E 02:54:03 10° S visible
06 Oct 5.1 02:07:47 10° NE 02:11:55 24° E 02:16:02 10° SE visible
06 Oct 3.1 03:46:17 10° N 03:51:15 53° WNW 03:56:10 10° SW visible
07 Oct 5.9 01:32:32 10° ENE 01:34:28 12° E 01:36:24 10° ESE visible
07 Oct 3.1 03:09:13 10° NNE 03:14:20 79° ESE 03:19:25 10° S visible
08 Oct 4.3 02:32:28 10° NNE 02:37:14 39° E 02:41:58 10° SSE visible
08 Oct 3.7 04:11:37 10° N 04:16:11 34° WNW 04:20:43 10° SW visible
09 Oct 5.4 01:56:14 10° NE 01:59:55 20° E 02:03:36 10° SE visible
09 Oct 3.0 03:34:22 10° N 03:39:25 66° WNW 03:44:26 10° SSW visible
10 Oct 3.4 02:57:22 10° NNE 03:02:27 63° ESE 03:07:28 10° S visible
11 Oct 4.7 02:20:45 10° NNE 02:25:17 31° E 02:29:47 10° SSE visible
11 Oct 3.4 03:59:37 10° N 04:04:23 41° WNW 04:09:09 10° SW visible
12 Oct 5.7 01:44:50 10° NE 01:47:54 16° E 01:50:58 10° SE visible
12 Oct 2.9 03:22:27 10° NNE 03:27:34 81° WNW 03:32:38 10° SSW visible
13 Oct 3.8 02:45:34 10° NNE 02:50:32 51° E 02:55:28 10° S visible
13 Oct 3.9 04:25:03 10° N 04:29:17 27° WNW 04:33:30 10° WSW visible
